EW5390 Weather Reports


Display with metric or nautical units.
time (UTC)temp
F
wind
direction
speed
MPH
gust
MPH
rain 1hr
in
rain 24hr
in
rain mn
in
humidity
%
barometer
mb
20260904060552 75 166 0.0 1.0 0.05 0.13 0.05 94 1012.7
20260904060110 76 0 0.0 1.0 0.04 0.12 0.04 94 1012.7
20260904055550 76 0 0.0 2.0 0.02 0.10 0.02 93 1012.5
20260904055054 77 169 0.0 2.0 0.01 0.09 0.01 93 1012.9
20260904054604 77 240 0.0 2.0 0.00 0.08 0.00 93 1013.1
20260904054052 77 325 1.0 2.0 0.00 0.08 0.00 94 1013.3
20260904053553 77 0 0.0 1.0 0.00 0.08 0.00 94 1013.5
20260904053132 77 0 1.0 1.0 0.00 0.08 0.00 94 1013.4
20260904052555 77 0 0.0 1.0 0.00 0.08 0.00 95 1013.5
20260904052055 77 291 0.0 2.0 0.00 0.08 0.00 95 1013.3
20260904051608 77 0 1.0 2.0 0.00 0.08 0.00 96 1012.8
20260904051054 77 0 0.0 1.0 0.00 0.08 0.00 97 1012.8
20260904050550 77 241 0.0 5.0 0.00 0.08 0.00 97 1013.2
20260904050108 77 0 0.0 5.0 0.00 0.08 0.00 97 1013.4
20260904045553 77 335 1.0 2.0 0.00 0.08 0.00 97 1013.3
20260904045050 76 319 0.0 2.0 0.00 0.08 0.00 97 1012.9
20260904044615 76 0 0.0 0.0 0.00 0.08 0.00 96 1012.9
20260904044052 76 0 0.0 0.0 0.00 0.08 0.00 96 1012.7
20260904043550 76 0 0.0 0.0 0.00 0.08 0.00 96 1012.7
20260904043103 76 0 0.0 0.0 0.00 0.08 0.00 96 1012.4
20260904042554 76 0 0.0 0.0 0.00 0.08 0.00 96 1012.3
20260904042054 76 0 0.0 0.0 0.00 0.08 0.00 96 1012.3
20260904041606 76 0 0.0 0.0 0.00 0.08 0.00 96 1012.2
20260904041050 76 0 0.0 0.0 0.00 0.08 0.00 96 1012.2
20260904040550 76 0 0.0 0.0 0.00 0.08 0.00 96 1012.4
20260904040110 76 0 0.0 0.0 0.00 0.08 0.00 96 1012.5
20260904035554 76 0 0.0 1.0 0.00 0.08 0.08 96 1012.8
20260904035053 76 0 0.0 1.0 0.00 0.08 0.08 96 1012.9
20260904034605 76 319 0.0 0.0 0.00 0.08 0.08 96 1012.9
20260904034054 76 0 0.0 0.0 0.00 0.08 0.08 96 1013.4
20260904033555 76 0 0.0 0.0 0.00 0.08 0.08 96 1013.4
20260904033100 76 0 0.0 0.0 0.00 0.08 0.08 96 1013.5
20260904032553 76 0 0.0 0.0 0.00 0.08 0.08 96 1013.4
20260904032056 76 0 0.0 0.0 0.00 0.08 0.08 96 1013.4
20260904031558 76 0 0.0 0.0 0.00 0.08 0.08 96 1013.3
20260904031050 76 0 0.0 0.0 0.00 0.08 0.08 96 1013.5
20260904030557 76 0 0.0 0.0 0.00 0.08 0.08 96 1013.6
20260904030106 76 0 0.0 0.0 0.00 0.08 0.08 96 1013.6
20260904025552 76 0 0.0 0.0 0.00 0.08 0.08 95 1013.6
20260904025053 77 0 0.0 0.0 0.00 0.08 0.08 95 1013.4
20260904024604 77 0 0.0 0.0 0.00 0.08 0.08 95 1013.4
20260904024053 77 0 0.0 0.0 0.00 0.08 0.08 95 1013.4
20260904023552 77 0 0.0 0.0 0.00 0.08 0.08 95 1013.4
20260904023128 77 0 0.0 0.0 0.00 0.08 0.08 95 1013.5
20260904022553 77 0 0.0 0.0 0.00 0.08 0.08 95 1013.5
20260904022051 77 0 0.0 0.0 0.00 0.08 0.08 95 1013.5
20260904021616 77 0 0.0 0.0 0.00 0.08 0.08 95 1013.3
20260904021053 77 0 0.0 0.0 0.00 0.08 0.08 95 1013.2
20260904020553 77 0 0.0 0.0 0.00 0.08 0.08 95 1013.3
20260904020106 77 0 0.0 0.0 0.00 0.08 0.08 95 1013.3
20260904015553 77 0 0.0 0.0 0.00 0.08 0.08 95 1013.4
20260904015055 77 0 0.0 0.0 0.00 0.08 0.08 95 1013.6
20260904014608 77 0 0.0 0.0 0.00 0.08 0.08 95 1013.7
20260904014053 77 0 0.0 0.0 0.00 0.08 0.08 95 1013.8
20260904013552 77 0 0.0 0.0 0.00 0.08 0.08 95 1013.8
20260904013122 77 0 0.0 0.0 0.00 0.08 0.08 94 1014.0
20260904012555 77 0 0.0 0.0 0.00 0.08 0.08 94 1014.1
20260904012053 77 0 0.0 0.0 0.00 0.08 0.08 94 1014.1
20260904011647 78 0 0.0 0.0 0.00 0.08 0.08 94 1014.0
20260904011052 78 0 0.0 0.0 0.00 0.08 0.08 94 1014.0
20260904010553 78 0 0.0 0.0 0.00 0.08 0.08 94 1014.0
20260904010106 78 0 0.0 0.0 0.00 0.08 0.08 94 1014.2
20260904005553 78 0 0.0 0.0 0.00 0.08 0.08 94 1014.3
20260904005052 78 0 0.0 0.0 0.00 0.08 0.08 94 1014.3
20260904004604 78 0 0.0 0.0 0.00 0.08 0.08 93 1014.4
20260904004050 78 0 0.0 0.0 0.00 0.08 0.08 93 1014.3
20260904003551 78 0 0.0 0.0 0.00 0.08 0.08 93 1014.3
20260904003101 78 0 0.0 0.0 0.00 0.08 0.08 93 1014.3
20260904002553 79 0 0.0 0.0 0.00 0.08 0.08 93 1014.2
20260904002054 79 0 0.0 1.0 0.00 0.08 0.08 93 1014.1
20260904001559 79 0 0.0 1.0 0.00 0.08 0.08 92 1013.9
20260904001053 79 319 0.0 1.0 0.00 0.08 0.08 92 1013.8
20260904000553 79 0 0.0 0.0 0.00 0.08 0.08 92 1013.8
20260904000105 79 0 0.0 0.0 0.00 0.08 0.08 91 1013.7
20260903235553 79 0 0.0 0.0 0.00 0.08 0.08 91 1013.6
20260903235053 79 0 0.0 0.0 0.00 0.08 0.08 91 1013.6
20260903234604 80 0 0.0 0.0 0.00 0.08 0.08 91 1013.5
20260903234052 80 0 0.0 0.0 0.00 0.08 0.08 91 1013.5
20260903233553 80 0 0.0 0.0 0.00 0.08 0.08 90 1013.5
20260903233100 80 0 0.0 0.0 0.00 0.08 0.08 90 1013.5
20260903232555 80 0 0.0 0.0 0.00 0.08 0.08 90 1013.6
20260903232056 81 0 0.0 0.0 0.00 0.08 0.08 90 1013.6
20260903231603 81 0 0.0 0.0 0.00 0.08 0.08 89 1013.5
20260903231053 81 0 0.0 1.0 0.00 0.08 0.08 89 1013.5
20260903230556 81 0 0.0 1.0 0.00 0.08 0.08 89 1013.4
20260903230103 82 319 0.0 0.0 0.00 0.08 0.08 88 1013.4
20260903225553 82 0 0.0 0.0 0.00 0.08 0.08 88 1013.6
20260903225053 82 0 0.0 0.0 0.00 0.08 0.08 88 1013.5
20260903224614 82 0 0.0 0.0 0.00 0.08 0.08 88 1013.4
20260903224053 82 0 0.0 0.0 0.00 0.08 0.08 86 1013.4
20260903223553 83 0 0.0 0.0 0.00 0.08 0.08 85 1013.4
20260903223100 83 319 0.0 0.0 0.00 0.08 0.08 85 1013.3
20260903222556 83 0 0.0 0.0 0.00 0.08 0.08 84 1013.3
20260903222055 83 0 0.0 0.0 0.00 0.08 0.08 84 1013.4
20260903221557 83 0 0.0 0.0 0.00 0.08 0.08 83 1013.6
20260903221052 84 0 0.0 0.0 0.00 0.08 0.08 82 1013.5
20260903220553 84 319 0.0 2.0 0.00 0.08 0.08 81 1013.4
20260903220105 84 0 0.0 2.0 0.00 0.08 0.08 79 1013.4
20260903215552 84 0 1.0 3.0 0.00 0.08 0.08 80 1013.3
20260903215051 84 0 0.0 3.0 0.00 0.08 0.08 79 1013.3
20260903214610 84 320 1.0 3.0 0.00 0.08 0.08 79 1013.3
20260903214057 84 320 0.0 2.0 0.00 0.08 0.08 80 1013.4
20260903213553 85 0 1.0 3.0 0.00 0.08 0.08 79 1013.5
20260903213101 84 316 1.0 3.0 0.00 0.08 0.08 79 1013.4
20260903212553 84 0 0.0 2.0 0.00 0.08 0.08 79 1013.5
20260903212053 84 301 1.0 3.0 0.00 0.08 0.08 79 1013.5
20260903211605 85 313 0.0 4.0 0.00 0.08 0.08 79 1013.4
20260903211052 85 317 1.0 4.0 0.00 0.08 0.08 77 1013.5
20260903210552 85 318 2.0 4.0 0.00 0.08 0.08 77 1013.7
20260903210142 85 281 1.0 2.0 0.00 0.08 0.08 78 1013.6
20260903205552 85 312 0.0 5.0 0.00 0.08 0.08 78 1013.6
20260903205054 85 310 2.0 5.0 0.00 0.08 0.08 79 1013.7
20260903204607 85 316 1.0 3.0 0.00 0.08 0.08 78 1013.6
20260903204054 85 305 1.0 3.0 0.00 0.08 0.08 80 1013.7
20260903203555 85 309 1.0 3.0 0.00 0.08 0.08 79 1013.8
20260903203100 85 276 1.0 5.0 0.00 0.08 0.08 80 1013.8
20260903202552 85 313 2.0 5.0 0.00 0.08 0.08 79 1013.8
20260903202052 85 265 1.0 3.0 0.00 0.08 0.08 80 1013.9
20260903201559 85 319 1.0 3.0 0.00 0.08 0.08 79 1013.8
20260903201054 84 273 1.0 3.0 0.00 0.08 0.08 79 1014.1
20260903200554 84 318 1.0 7.0 0.00 0.08 0.08 79 1014.0
20260903200117 84 210 2.0 7.0 0.00 0.08 0.08 80 1014.1
20260903195554 84 320 1.0 4.0 0.00 0.14 0.08 83 1014.1
20260903195052 84 314 2.0 4.0 0.00 0.14 0.08 83 1014.2
20260903194609 84 320 1.0 3.0 0.00 0.14 0.08 83 1014.1
20260903194055 84 321 1.0 3.0 0.00 0.14 0.08 84 1014.2
20260903193553 84 0 0.0 4.0 0.00 0.14 0.08 86 1014.3
20260903193102 84 238 0.0 4.0 0.00 0.14 0.08 85 1014.3
20260903192554 84 311 2.0 4.0 0.00 0.14 0.08 84 1014.4
20260903192054 83 313 1.0 2.0 0.00 0.14 0.08 86 1014.4
20260903191606 83 309 0.0 7.0 0.00 0.14 0.08 88 1014.5
20260903191051 83 0 0.0 7.0 0.00 0.14 0.08 88 1014.6
20260903190552 83 296 2.0 7.0 0.00 0.14 0.08 87 1014.8
20260903190058 83 312 1.0 6.0 0.00 0.14 0.08 87 1014.9
20260903185554 83 313 2.0 6.0 0.00 0.23 0.08 87 1015.0
20260903185055 83 310 3.0 6.0 0.00 0.23 0.08 87 1015.1
20260903184559 83 309 0.0 5.0 0.00 0.23 0.08 88 1014.9
20260903184055 83 321 1.0 5.0 0.00 0.23 0.08 89 1014.9
20260903183554 82 323 1.0 5.0 0.00 0.23 0.08 89 1015.0
20260903183108 82 326 1.0 5.0 0.00 0.23 0.08 89 1015.1
20260903182556 82 0 1.0 4.0 0.00 0.23 0.08 89 1015.1
20260903182054 82 323 1.0 4.0 0.00 0.23 0.08 90 1014.9
20260903181601 82 319 1.0 4.0 0.00 0.23 0.08 90 1014.9
20260903181054 82 330 1.0 3.0 0.00 0.23 0.08 90 1014.8
20260903180556 81 317 2.0 3.0 0.00 0.23 0.08 91 1014.7
20260903175554 80 278 0.0 1.0 0.00 0.23 0.08 92 1014.9
20260903175054 80 0 0.0 1.0 0.00 0.23 0.08 92 1015.1
20260903174601 80 0 0.0 2.0 0.00 0.23 0.08 91 1015.1
20260903174055 80 278 0.0 2.0 0.00 0.23 0.08 91 1015.2
20260903173555 80 0 0.0 1.0 0.00 0.23 0.08 92 1015.5
20260903173109 80 0 0.0 1.0 0.00 0.23 0.08 92 1015.5
20260903172553 80 0 0.0 1.0 0.00 0.23 0.08 92 1015.5
20260903172054 80 319 0.0 2.0 0.00 0.23 0.08 92 1015.7
20260903171613 80 0 0.0 2.0 0.00 0.23 0.08 92 1015.8
20260903171053 80 320 0.0 2.0 0.00 0.23 0.08 92 1016.0
20260903170556 80 320 0.0 4.0 0.00 0.23 0.08 91 1016.0
20260903170059 80 320 1.0 5.0 0.00 0.23 0.08 91 1016.0
20260903165555 81 290 2.0 5.0 0.00 0.23 0.08 91 1016.2
20260903165058 81 323 1.0 5.0 0.00 0.23 0.08 91 1016.2
20260903164603 81 314 2.0 5.0 0.00 0.23 0.08 91 1016.2
20260903164056 81 331 1.0 4.0 0.00 0.23 0.08 91 1016.3
20260903163558 81 307 1.0 5.0 0.00 0.23 0.08 91 1016.4
20260903163107 81 315 1.0 5.0 0.00 0.23 0.08 91 1016.5
20260903162554 81 316 1.0 5.0 0.00 0.23 0.08 91 1016.5
20260903162056 81 296 1.0 5.0 0.00 0.23 0.08 91 1016.3
20260903161600 81 307 0.0 3.0 0.00 0.23 0.08 92 1016.4
20260903161056 80 306 0.0 3.0 0.00 0.23 0.08 92 1016.4
20260903160556 80 318 1.0 3.0 0.00 0.23 0.08 92 1016.4
20260903160104 80 0 0.0 2.0 0.00 0.23 0.08 92 1016.2
20260903155554 80 0 0.0 4.0 0.00 0.23 0.08 93 1016.3
20260903155057 80 0 1.0 4.0 0.00 0.23 0.08 93 1016.3
20260903154607 80 305 0.0 2.0 0.00 0.23 0.08 93 1016.2
20260903154053 80 0 0.0 2.0 0.00 0.23 0.08 93 1016.1
20260903153555 80 350 0.0 2.0 0.00 0.23 0.08 93 1016.2
20260903153109 80 326 0.0 2.0 0.00 0.23 0.08 93 1016.1
20260903152554 80 0 0.0 3.0 0.00 0.23 0.08 94 1016.1
20260903152054 80 313 0.0 3.0 0.00 0.23 0.08 94 1016.1
20260903151611 80 0 0.0 3.0 0.00 0.23 0.08 95 1015.8
20260903151054 79 162 1.0 3.0 0.00 0.23 0.08 96 1015.9
20260903150556 79 323 0.0 2.0 0.00 0.23 0.08 96 1015.9
20260903150107 78 166 1.0 2.0 0.00 0.23 0.08 97 1016.0
20260903145552 78 164 0.0 2.0 0.00 0.23 0.08 97 1015.8
20260903145053 77 172 0.0 2.0 0.00 0.23 0.08 97 1015.7
20260903144558 77 0 0.0 2.0 0.00 0.23 0.08 97 1016.0
20260903144053 77 65 0.0 3.0 0.00 0.23 0.08 97 1015.9
20260903143553 77 162 0.0 3.0 0.00 0.23 0.08 98 1015.9
20260903143058 77 140 1.0 6.0 0.00 0.23 0.08 98 1015.9
20260903142553 77 0 0.0 6.0 0.00 0.23 0.08 98 1016.2
20260903142053 77 339 0.0 3.0 0.00 0.23 0.08 98 1016.0
20260903141604 77 148 0.0 3.0 0.00 0.23 0.08 98 1015.9
20260903141057 77 0 0.0 2.0 0.00 0.23 0.08 99 1016.0
20260903140554 76 0 0.0 2.0 0.00 0.23 0.08 99 1015.9
20260903140113 76 159 0.0 2.0 0.00 0.23 0.08 99 1015.9
20260903135552 76 173 0.0 2.0 0.00 0.23 0.08 99 1016.0
20260903135054 76 0 0.0 1.0 0.00 0.23 0.08 99 1016.1
20260903134556 76 0 0.0 2.0 0.00 0.23 0.08 99 1016.2
20260903134052 75 201 0.0 2.0 0.00 0.23 0.08 99 1016.0
20260903133553 75 148 0.0 2.0 0.00 0.23 0.08 99 1015.8
20260903133104 75 0 0.0 2.0 0.00 0.23 0.08 99 1016.0
20260903132553 75 221 0.0 2.0 0.00 0.23 0.08 99 1015.7
20260903132053 75 92 0.0 2.0 0.00 0.23 0.08 99 1015.9
20260903131610 75 157 0.0 2.0 0.00 0.23 0.08 99 1016.0
20260903131054 75 0 0.0 0.0 0.00 0.23 0.08 99 1016.5
20260903130554 75 0 0.0 0.0 0.00 0.23 0.08 99 1016.9
20260903125554 74 0 0.0 0.0 0.00 0.23 0.08 99 1017.3
20260903125053 74 0 0.0 0.0 0.00 0.23 0.08 99 1017.4
20260903124610 74 0 0.0 0.0 0.00 0.23 0.08 99 1017.4
20260903124053 74 0 0.0 0.0 0.00 0.23 0.08 99 1017.6
20260903123552 74 0 0.0 0.0 0.00 0.23 0.08 99 1017.6
20260903123102 74 0 0.0 0.0 0.00 0.23 0.08 99 1017.9
20260903122553 74 0 0.0 0.0 0.00 0.23 0.08 99 1018.0
20260903122053 74 0 0.0 0.0 0.00 0.23 0.08 99 1017.9
20260903121602 74 0 0.0 0.0 0.00 0.23 0.08 99 1018.1
20260903121053 74 0 0.0 0.0 0.00 0.23 0.08 99 1018.1
20260903120556 74 0 0.0 0.0 0.00 0.23 0.08 99 1018.2
20260903115554 74 0 0.0 0.0 0.00 0.23 0.08 99 1018.2
20260903115053 74 0 0.0 0.0 0.00 0.23 0.08 99 1018.3
20260903114606 74 0 0.0 0.0 0.00 0.23 0.08 99 1018.2
20260903114053 74 0 0.0 0.0 0.00 0.23 0.08 99 1018.0
20260903113557 74 0 0.0 0.0 0.00 0.23 0.08 99 1017.9
20260903113122 74 0 0.0 0.0 0.00 0.23 0.08 99 1018.1
20260903112553 74 0 0.0 0.0 0.00 0.23 0.08 99 1018.3
20260903112052 74 0 0.0 0.0 0.00 0.23 0.08 99 1018.4
20260903111601 74 0 0.0 0.0 0.00 0.23 0.08 99 1018.3
20260903111052 74 0 0.0 0.0 0.00 0.23 0.08 99 1018.1
20260903110553 74 0 0.0 0.0 0.00 0.23 0.08 99 1018.0
20260903110100 74 0 0.0 0.0 0.00 0.23 0.08 99 1017.9
20260903105555 74 0 0.0 0.0 0.00 0.23 0.08 99 1017.9
20260903105054 74 0 0.0 0.0 0.00 0.23 0.08 99 1017.9
20260903104603 74 0 0.0 0.0 0.00 0.23 0.08 99 1017.8
20260903104054 74 0 0.0 1.0 0.06 0.23 0.08 99 1017.8
20260903103552 74 0 0.0 3.0 0.07 0.23 0.08 99 1017.8
20260903103105 74 0 0.0 3.0 0.07 0.23 0.08 99 1017.8
20260903102554 74 62 1.0 4.0 0.07 0.23 0.08 99 1017.7
20260903102051 74 61 2.0 4.0 0.07 0.23 0.08 99 1017.7
20260903101604 74 65 2.0 3.0 0.07 0.23 0.08 99 1017.6
20260903101052 74 59 0.0 2.0 0.07 0.23 0.08 99 1017.4
20260903100552 73 0 0.0 0.0 0.07 0.23 0.08 99 1017.3
20260903100059 73 0 0.0 0.0 0.07 0.23 0.08 99 1017.4
20260903095551 73 0 0.0 0.0 0.07 0.23 0.08 99 1017.3
20260903095051 73 0 0.0 0.0 0.07 0.23 0.08 99 1017.5
20260903094655 73 0 0.0 1.0 0.07 0.23 0.08 99 1017.5
20260903094052 73 0 0.0 1.0 0.01 0.17 0.02 99 1017.5
20260903093551 73 0 0.0 0.0 0.00 0.16 0.01 98 1017.5
20260903093105 73 0 0.0 0.0 0.00 0.16 0.01 98 1017.4
20260903092555 73 0 0.0 0.0 0.00 0.16 0.01 98 1017.3
20260903092056 73 0 0.0 0.0 0.00 0.16 0.01 98 1017.3
20260903091605 73 0 0.0 0.0 0.00 0.16 0.01 98 1017.1
20260903091053 73 0 0.0 0.0 0.00 0.16 0.01 98 1017.2
20260903090552 73 0 0.0 0.0 0.00 0.16 0.01 98 1017.3
20260903090108 73 0 0.0 0.0 0.00 0.16 0.01 98 1017.3
20260903085551 73 0 0.0 0.0 0.00 0.16 0.01 98 1017.1
20260903085051 73 0 0.0 0.0 0.00 0.16 0.01 98 1016.9
20260903084558 73 0 0.0 0.0 0.00 0.16 0.01 98 1016.8
20260903084052 74 0 0.0 0.0 0.00 0.16 0.01 98 1017.0
20260903083552 74 0 0.0 0.0 0.00 0.16 0.01 99 1017.0
20260903083108 74 0 0.0 0.0 0.00 0.16 0.01 98 1017.1
20260903082554 73 0 0.0 0.0 0.00 0.16 0.01 98 1017.2
20260903082051 73 0 0.0 0.0 0.01 0.16 0.01 98 1017.0
20260903081559 73 0 0.0 0.0 0.01 0.16 0.01 98 1017.2
20260903081054 74 0 0.0 0.0 0.01 0.16 0.01 98 1017.3
20260903080552 74 0 0.0 0.0 0.01 0.16 0.01 98 1017.3
20260903080104 74 0 0.0 0.0 0.01 0.16 0.01 98 1017.5
20260903075552 74 0 0.0 0.0 0.01 0.16 0.01 98 1017.4
20260903075051 74 0 0.0 0.0 0.01 0.16 0.01 98 1017.4
20260903074607 74 0 0.0 0.0 0.01 0.16 0.01 98 1017.6
20260903074054 74 0 0.0 0.0 0.01 0.16 0.01 98 1017.3
20260903073551 74 0 0.0 1.0 0.01 0.16 0.01 98 1017.1
20260903073100 74 0 0.0 1.0 0.01 0.16 0.01 98 1017.3
20260903072554 74 0 0.0 1.0 0.01 0.16 0.01 98 1017.4
20260903072056 74 356 0.0 1.0 0.00 0.15 0.00 98 1017.8
20260903071601 74 0 0.0 2.0 0.00 0.15 0.00 98 1018.0
20260903071051 74 0 0.0 2.0 0.00 0.15 0.00 98 1018.0
20260903070554 74 356 1.0 2.0 0.00 0.15 0.00 98 1017.6
20260903070103 74 19 0.0 1.0 0.00 0.15 0.00 98 1017.2
20260903065555 74 19 1.0 1.0 0.00 0.15 0.00 98 1017.0
20260903065051 74 21 0.0 0.0 0.00 0.15 0.00 98 1016.8
20260903064609 74 0 0.0 0.0 0.00 0.15 0.00 98 1016.7
20260903064051 74 0 0.0 0.0 0.00 0.15 0.00 98 1016.9
20260903063550 74 0 0.0 1.0 0.00 0.15 0.00 98 1016.6
20260903063105 74 0 0.0 1.0 0.00 0.15 0.00 98 1016.7
20260903062554 74 21 0.0 1.0 0.00 0.15 0.00 98 1016.7
20260903062054 74 354 0.0 1.0 0.00 0.15 0.00 98 1016.8
20260903061558 73 0 0.0 0.0 0.00 0.15 0.00 98 1016.6
20260903061051 73 351 0.0 1.0 0.00 0.15 0.00 98 1016.3